Time,TemperatureF,DewpointF,PressureIn,WindDirection,WindDirectionDegrees,WindSpeedMPH,WindSpeedGustMPH,Humidity,HourlyPrecipIn,Conditions,Clouds,dailyrainin,SoftwareType,DateUTC
2013-05-23 00:01:00,61.0,26.0,29.49,SSW,200,15.0,24.0,26,-99.99,,,0.00,,2013-05-23 07:01:00,
2013-05-23 00:11:00,61.0,26.0,29.49,SSW,200,15.0,24.0,26,-99.99,,,0.00,,2013-05-23 07:11:00,
2013-05-23 00:21:00,61.0,25.0,29.50,SSW,192,11.0,22.0,25,-99.99,,,0.00,,2013-05-23 07:21:00,
2013-05-23 00:31:00,61.0,26.0,29.50,SSW,194,7.0,22.0,26,-99.99,,,0.00,,2013-05-23 07:31:00,
2013-05-23 00:42:00,61.0,26.0,29.50,SSW,194,7.0,22.0,26,-99.99,,,0.00,,2013-05-23 07:42:00,
2013-05-23 00:59:00,60.0,24.0,29.51,SSW,201,15.0,27.0,25,-99.99,,,0.00,,2013-05-23 07:59:00,
2013-05-23 01:11:00,60.0,24.0,29.51,SSW,195,14.0,29.0,25,-99.99,,,0.00,,2013-05-23 08:11:00,
2013-05-23 01:21:00,60.0,24.0,29.50,SSW,196,14.0,28.0,25,-99.99,,,0.00,,2013-05-23 08:21:00,
2013-05-23 01:31:00,60.0,24.0,29.50,SSW,200,13.0,28.0,25,-99.99,,,0.00,,2013-05-23 08:31:00,
2013-05-23 01:41:00,60.0,24.0,29.50,SSW,200,13.0,28.0,25,-99.99,,,0.00,,2013-05-23 08:41:00,
2013-05-23 01:52:00,59.0,24.0,29.50,SW,222,17.0,27.0,26,-99.99,,,0.00,,2013-05-23 08:52:00,
2013-05-23 02:01:00,59.0,24.0,29.50,SW,222,17.0,27.0,26,-99.99,,,0.00,,2013-05-23 09:01:00,
2013-05-23 02:11:00,59.0,24.0,29.50,SW,222,17.0,27.0,26,-99.99,,,0.00,,2013-05-23 09:11:00,
2013-05-23 02:21:00,59.0,24.0,29.51,SW,225,16.0,27.0,26,-99.99,,,0.00,,2013-05-23 09:21:00,
2013-05-23 02:32:00,59.0,24.0,29.51,SSW,195,22.0,27.0,26,-99.99,,,0.00,,2013-05-23 09:32:00,
2013-05-23 02:42:00,59.0,24.0,29.51,SSW,195,22.0,27.0,26,-99.99,,,0.00,,2013-05-23 09:42:00,
2013-05-23 02:53:00,58.0,24.0,29.50,SSW,194,19.0,29.0,27,-99.99,,,0.00,,2013-05-23 09:53:00,
2013-05-23 03:02:00,58.0,24.0,29.50,SSW,194,19.0,29.0,27,-99.99,,,0.00,,2013-05-23 10:02:00,
2013-05-23 03:12:00,58.0,24.0,29.50,SSW,194,19.0,29.0,27,-99.99,,,0.00,,2013-05-23 10:12:00,
2013-05-23 03:22:00,57.0,24.0,29.52,SSW,195,14.0,28.0,27,-99.99,,,0.00,,2013-05-23 10:22:00,
2013-05-23 03:32:00,57.0,23.0,29.51,SSW,194,20.0,28.0,27,-99.99,,,0.00,,2013-05-23 10:32:00,
2013-05-23 03:42:00,57.0,23.0,29.51,SSW,194,20.0,28.0,27,-99.99,,,0.00,,2013-05-23 10:42:00,
2013-05-23 03:52:00,57.0,23.0,29.50,SSW,202,16.0,30.0,27,-99.99,,,0.00,,2013-05-23 10:52:00,
2013-05-23 04:02:00,57.0,23.0,29.50,SSW,202,16.0,30.0,27,-99.99,,,0.00,,2013-05-23 11:02:00,
2013-05-23 04:11:00,57.0,23.0,29.50,SSW,202,16.0,30.0,27,-99.99,,,0.00,,2013-05-23 11:11:00,
2013-05-23 04:21:00,57.0,23.0,29.51,SSW,197,18.0,29.0,27,-99.99,,,0.00,,2013-05-23 11:21:00,
2013-05-23 04:32:00,57.0,23.0,29.51,SSW,197,18.0,29.0,27,-99.99,,,0.00,,2013-05-23 11:32:00,
2013-05-23 04:41:00,56.0,23.0,29.52,SSW,198,13.0,29.0,27,-99.99,,,0.00,,2013-05-23 11:41:00,
2013-05-23 04:52:00,56.0,24.0,29.52,SW,230,20.0,30.0,28,-99.99,,,0.00,,2013-05-23 11:52:00,
2013-05-23 05:01:00,56.0,24.0,29.52,SW,230,20.0,30.0,28,-99.99,,,0.00,,2013-05-23 12:01:00,
2013-05-23 05:11:00,56.0,24.0,29.54,SSW,210,15.0,35.0,29,-99.99,,,0.00,,2013-05-23 12:11:00,
2013-05-23 05:21:00,56.0,25.0,29.54,SSW,196,13.0,25.0,30,-99.99,,,0.00,,2013-05-23 12:21:00,
2013-05-23 05:32:00,56.0,25.0,29.54,SW,214,18.0,28.0,30,-99.99,,,-99.99,,2013-05-23 12:32:00,
2013-05-23 05:42:00,56.0,25.0,29.54,SW,214,18.0,28.0,30,-99.99,,,-99.99,,2013-05-23 12:42:00,
2013-05-23 05:52:00,56.0,26.0,29.54,SSW,201,15.0,29.0,31,-99.99,,,0.00,,2013-05-23 12:52:00,
2013-05-23 06:01:00,56.0,26.0,29.55,SW,214,14.0,29.0,31,-99.99,,,0.00,,2013-05-23 13:01:00,
2013-05-23 06:11:00,56.0,26.0,29.55,SW,214,14.0,29.0,31,-99.99,,,0.00,,2013-05-23 13:11:00,
2013-05-23 06:21:00,56.0,26.0,29.56,SW,230,21.0,34.0,32,-99.99,,,0.00,,2013-05-23 13:21:00,
2013-05-23 06:31:00,56.0,25.0,29.57,SW,226,23.0,34.0,30,-99.99,,,0.00,,2013-05-23 13:31:00,
2013-05-23 06:41:00,56.0,25.0,29.57,SW,226,23.0,34.0,30,-99.99,,,0.00,,2013-05-23 13:41:00,
2013-05-23 06:52:00,57.0,26.0,29.57,SSW,213,20.0,33.0,30,-99.99,,,0.00,,2013-05-23 13:52:00,
2013-05-23 07:01:00,57.0,26.0,29.57,SSW,213,20.0,33.0,30,-99.99,,,0.00,,2013-05-23 14:01:00,
2013-05-23 07:11:00,57.0,26.0,29.58,SW,223,24.0,33.0,30,-99.99,,,0.00,,2013-05-23 14:11:00,
2013-05-23 07:21:00,57.0,25.0,29.58,SSW,201,13.0,32.0,29,-99.99,,,-99.99,,2013-05-23 14:21:00,
2013-05-23 07:32:00,57.0,25.0,29.58,SSW,201,13.0,32.0,29,-99.99,,,-99.99,,2013-05-23 14:32:00,
2013-05-23 07:41:00,57.0,26.0,29.59,SSW,210,9.0,32.0,30,-99.99,,,0.00,,2013-05-23 14:41:00,
2013-05-23 07:52:00,58.0,26.0,29.61,SSW,195,14.0,24.0,29,-99.99,,,0.00,,2013-05-23 14:52:00,
2013-05-23 08:01:00,58.0,26.0,29.61,SSW,195,14.0,24.0,29,-99.99,,,0.00,,2013-05-23 15:01:00,
2013-05-23 08:11:00,59.0,26.0,29.60,SW,228,26.0,30.0,28,-99.99,,,0.00,,2013-05-23 15:11:00,
2013-05-23 08:21:00,59.0,28.0,29.60,South,182,12.0,36.0,30,-99.99,,,0.00,,2013-05-23 15:21:00,
2013-05-23 08:32:00,60.0,28.0,29.61,SW,221,13.0,37.0,30,-99.99,,,0.00,,2013-05-23 15:32:00,
2013-05-23 08:42:00,60.0,28.0,29.61,SW,221,13.0,37.0,30,-99.99,,,0.00,,2013-05-23 15:42:00,
2013-05-23 08:53:00,60.0,29.0,29.61,SW,215,26.0,37.0,30,-99.99,,,0.00,,2013-05-23 15:53:00,
2013-05-23 09:03:00,60.0,29.0,29.61,SW,215,26.0,37.0,30,-99.99,,,0.00,,2013-05-23 16:03:00,
2013-05-23 09:12:00,61.0,28.0,29.60,SW,214,25.0,37.0,28,-99.99,,,0.00,,2013-05-23 16:12:00,
2013-05-23 09:22:00,62.0,27.0,29.61,South,188,22.0,35.0,26,-99.99,,,0.00,,2013-05-23 16:22:00,
2013-05-23 09:33:00,62.0,27.0,29.61,South,188,22.0,35.0,26,-99.99,,,0.00,,2013-05-23 16:33:00,
2013-05-23 09:42:00,63.0,28.0,29.61,South,173,30.0,36.0,26,-99.99,,,0.00,,2013-05-23 16:42:00,
2013-05-23 09:52:00,64.0,27.0,29.60,SSW,193,15.0,33.0,24,-99.99,,,0.00,,2013-05-23 16:52:00,
2013-05-23 10:03:00,64.0,27.0,29.60,SSW,193,15.0,33.0,24,-99.99,,,0.00,,2013-05-23 17:03:00,
2013-05-23 10:11:00,64.0,26.0,29.60,SSW,193,21.0,35.0,23,-99.99,,,0.00,,2013-05-23 17:11:00,
2013-05-23 10:22:00,65.0,25.0,29.59,SSW,195,21.0,35.0,22,-99.99,,,0.00,,2013-05-23 17:22:00,
2013-05-23 10:33:00,65.0,23.0,29.59,South,169,26.0,39.0,20,-99.99,,,0.00,,2013-05-23 17:33:00,
2013-05-23 10:42:00,65.0,23.0,29.59,South,169,26.0,39.0,20,-99.99,,,0.00,,2013-05-23 17:42:00,
2013-05-23 10:52:00,66.0,23.0,29.59,SSW,197,20.0,39.0,20,-99.99,,,0.00,,2013-05-23 17:52:00,
2013-05-23 11:01:00,66.0,23.0,29.59,SSW,197,20.0,39.0,20,-99.99,,,0.00,,2013-05-23 18:01:00,
2013-05-23 11:11:00,66.0,22.0,29.60,South,186,17.0,43.0,19,-99.99,,,0.00,,2013-05-23 18:11:00,
2013-05-23 11:21:00,67.0,23.0,29.59,SSW,202,19.0,38.0,19,-99.99,,,0.00,,2013-05-23 18:21:00,
2013-05-23 11:32:00,67.0,23.0,29.59,SSW,202,19.0,38.0,19,-99.99,,,0.00,,2013-05-23 18:32:00,
2013-05-23 11:42:00,68.0,24.0,29.57,South,171,21.0,39.0,19,-99.99,,,0.00,,2013-05-23 18:42:00,
2013-05-23 11:52:00,68.0,24.0,29.58,SW,217,22.0,40.0,19,-99.99,,,0.00,,2013-05-23 18:52:00,
2013-05-23 12:01:00,68.0,24.0,29.58,SW,217,22.0,40.0,19,-99.99,,,0.00,,2013-05-23 19:01:00,
2013-05-23 12:11:00,68.0,25.0,29.57,South,191,30.0,46.0,19,-99.99,,,0.00,,2013-05-23 19:11:00,
2013-05-23 12:21:00,68.0,24.0,29.59,SSW,196,31.0,43.0,19,-99.99,,,0.00,,2013-05-23 19:21:00,
2013-05-23 12:31:00,68.0,24.0,29.59,SSW,196,31.0,43.0,19,-99.99,,,0.00,,2013-05-23 19:31:00,
2013-05-23 12:41:00,69.0,24.0,29.58,South,173,21.0,43.0,18,-99.99,,,0.00,,2013-05-23 19:41:00,
2013-05-23 12:52:00,69.0,25.0,29.59,South,183,12.0,40.0,19,-99.99,,,0.00,,2013-05-23 19:52:00,
2013-05-23 13:02:00,69.0,25.0,29.59,South,183,12.0,40.0,19,-99.99,,,0.00,,2013-05-23 20:02:00,
2013-05-23 13:11:00,70.0,25.0,29.57,SSW,205,22.0,40.0,19,-99.99,,,0.00,,2013-05-23 20:11:00,
2013-05-23 13:21:00,69.0,24.0,29.58,South,182,36.0,42.0,18,-99.99,,,0.00,,2013-05-23 20:21:00,
2013-05-23 13:32:00,69.0,25.0,29.58,SSW,198,19.0,42.0,19,-99.99,,,0.00,,2013-05-23 20:32:00,
2013-05-23 13:41:00,69.0,25.0,29.58,SSW,198,19.0,42.0,19,-99.99,,,0.00,,2013-05-23 20:41:00,
2013-05-23 13:52:00,70.0,24.0,29.58,SSW,193,28.0,44.0,18,-99.99,,,0.00,,2013-05-23 20:52:00,
2013-05-23 14:01:00,70.0,24.0,29.58,SSW,193,28.0,44.0,18,-99.99,,,0.00,,2013-05-23 21:01:00,
2013-05-23 14:11:00,71.0,26.0,29.56,SW,219,24.0,44.0,19,-99.99,,,0.00,,2013-05-23 21:11:00,
2013-05-23 14:21:00,71.0,25.0,29.55,SSW,210,24.0,40.0,18,-99.99,,,0.00,,2013-05-23 21:21:00,
2013-05-23 14:32:00,71.0,25.0,29.55,SSW,210,24.0,40.0,18,-99.99,,,0.00,,2013-05-23 21:32:00,
2013-05-23 14:43:00,71.0,27.0,29.55,South,179,30.0,41.0,19,-99.99,,,0.00,,2013-05-23 21:43:00,
2013-05-23 14:53:00,71.0,25.0,29.57,SW,231,30.0,43.0,18,-99.99,,,0.00,,2013-05-23 21:53:00,
2013-05-23 15:02:00,71.0,25.0,29.57,SW,231,30.0,43.0,18,-99.99,,,0.00,,2013-05-23 22:02:00,
2013-05-23 15:12:00,71.0,21.0,29.57,SW,223,29.0,43.0,15,-99.99,,,-99.99,,2013-05-23 22:12:00,
2013-05-23 15:22:00,71.0,23.0,29.57,South,183,18.0,43.0,16,-99.99,,,-99.99,,2013-05-23 22:22:00,
2013-05-23 15:33:00,71.0,23.0,29.57,South,183,18.0,43.0,16,-99.99,,,-99.99,,2013-05-23 22:33:00,
2013-05-23 15:42:00,71.0,21.0,29.57,SSW,198,25.0,45.0,15,-99.99,,,0.00,,2013-05-23 22:42:00,
2013-05-23 15:52:00,71.0,24.0,29.56,South,184,23.0,47.0,17,-99.99,,,0.00,,2013-05-23 22:52:00,
2013-05-23 16:01:00,71.0,24.0,29.56,South,184,23.0,47.0,17,-99.99,,,0.00,,2013-05-23 23:01:00,
2013-05-23 16:11:00,71.0,24.0,29.56,South,184,23.0,47.0,17,-99.99,,,0.00,,2013-05-23 23:11:00,
2013-05-23 16:21:00,70.0,23.0,29.57,South,176,26.0,46.0,17,-99.99,,,0.00,,2013-05-23 23:21:00,
2013-05-23 16:31:00,71.0,24.0,29.55,South,180,37.0,46.0,17,-99.99,,,0.00,,2013-05-23 23:31:00,
2013-05-23 16:42:00,71.0,24.0,29.55,South,180,37.0,46.0,17,-99.99,,,0.00,,2013-05-23 23:42:00,
2013-05-23 16:52:00,70.0,25.0,29.57,SSW,203,24.0,45.0,18,-99.99,,,-99.99,,2013-05-23 23:52:00,
2013-05-23 17:01:00,70.0,25.0,29.57,SSW,203,24.0,45.0,18,-99.99,,,-99.99,,2013-05-24 00:01:00,
2013-05-23 17:12:00,70.0,25.0,29.56,WSW,241,24.0,46.0,18,-99.99,,,0.00,,2013-05-24 00:12:00,
2013-05-23 17:21:00,69.0,24.0,29.58,SSW,197,17.0,45.0,18,-99.99,,,0.00,,2013-05-24 00:21:00,
2013-05-23 17:31:00,69.0,25.0,29.58,South,185,15.0,45.0,19,-99.99,,,-99.99,,2013-05-24 00:31:00,
2013-05-23 17:42:00,69.0,25.0,29.58,South,185,15.0,45.0,19,-99.99,,,-99.99,,2013-05-24 00:42:00,
2013-05-23 17:52:00,69.0,25.0,29.58,South,175,30.0,44.0,19,-99.99,,,0.00,,2013-05-24 00:52:00,
2013-05-23 18:01:00,69.0,25.0,29.58,South,175,30.0,44.0,19,-99.99,,,0.00,,2013-05-24 01:01:00,
2013-05-23 18:12:00,69.0,25.0,29.58,South,169,15.0,44.0,19,-99.99,,,0.00,,2013-05-24 01:12:00,
2013-05-23 18:22:00,68.0,25.0,29.59,SSW,193,19.0,36.0,19,-99.99,,,0.00,,2013-05-24 01:22:00,
2013-05-23 18:32:00,68.0,25.0,29.59,South,178,17.0,36.0,20,-99.99,,,0.00,,2013-05-24 01:32:00,
2013-05-23 18:41:00,68.0,25.0,29.59,South,178,17.0,36.0,20,-99.99,,,0.00,,2013-05-24 01:41:00,
2013-05-23 18:52:00,68.0,25.0,29.60,SW,227,22.0,34.0,20,-99.99,,,0.00,,2013-05-24 01:52:00,
2013-05-23 19:01:00,68.0,25.0,29.60,SW,227,22.0,34.0,20,-99.99,,,0.00,,2013-05-24 02:01:00,
2013-05-23 19:11:00,67.0,25.0,29.60,SSW,207,15.0,35.0,20,-99.99,,,0.00,,2013-05-24 02:11:00,
2013-05-23 19:21:00,66.0,25.0,29.62,SW,222,14.0,32.0,21,-99.99,,,0.00,,2013-05-24 02:21:00,
2013-05-23 19:32:00,65.0,24.0,29.63,South,187,20.0,32.0,21,-99.99,,,0.00,,2013-05-24 02:32:00,
2013-05-23 19:42:00,65.0,24.0,29.63,South,187,20.0,32.0,21,-99.99,,,0.00,,2013-05-24 02:42:00,
2013-05-23 19:52:00,65.0,24.0,29.63,South,184,8.0,23.0,21,-99.99,,,0.00,,2013-05-24 02:52:00,
2013-05-23 20:02:00,65.0,24.0,29.63,South,184,8.0,23.0,21,-99.99,,,0.00,,2013-05-24 03:02:00,
2013-05-23 20:11:00,64.0,25.0,29.63,SW,218,13.0,23.0,22,-99.99,,,0.00,,2013-05-24 03:11:00,
2013-05-23 20:21:00,64.0,24.0,29.64,SSW,200,12.0,23.0,22,-99.99,,,0.00,,2013-05-24 03:21:00,
2013-05-23 20:33:00,63.0,24.0,29.64,SW,221,14.0,23.0,22,-99.99,,,0.00,,2013-05-24 03:33:00,
2013-05-23 20:42:00,63.0,24.0,29.64,SW,221,14.0,23.0,22,-99.99,,,0.00,,2013-05-24 03:42:00,
2013-05-23 20:53:00,63.0,25.0,29.62,South,178,16.0,25.0,23,-99.99,,,0.00,,2013-05-24 03:53:00,
2013-05-23 21:03:00,63.0,25.0,29.62,South,178,16.0,25.0,23,-99.99,,,0.00,,2013-05-24 04:03:00,
2013-05-23 21:12:00,63.0,24.0,29.63,SSW,199,13.0,25.0,23,-99.99,,,0.00,,2013-05-24 04:12:00,
2013-05-23 21:22:00,62.0,25.0,29.65,SSW,213,7.0,22.0,24,-99.99,,,0.00,,2013-05-24 04:22:00,
2013-05-23 21:33:00,62.0,25.0,29.65,SW,220,13.0,22.0,24,-99.99,,,0.00,,2013-05-24 04:33:00,
2013-05-23 21:42:00,62.0,25.0,29.65,SW,220,13.0,22.0,24,-99.99,,,0.00,,2013-05-24 04:42:00,
2013-05-23 21:53:00,62.0,25.0,29.64,SSW,210,16.0,24.0,24,-99.99,,,0.00,,2013-05-24 04:53:00,
2013-05-23 22:02:00,62.0,25.0,29.64,South,189,21.0,27.0,24,-99.99,,,0.00,,2013-05-24 05:02:00,
2013-05-23 22:12:00,62.0,25.0,29.64,South,189,21.0,27.0,24,-99.99,,,0.00,,2013-05-24 05:12:00,
2013-05-23 22:22:00,62.0,25.0,29.63,SW,218,22.0,26.0,24,-99.99,,,0.00,,2013-05-24 05:22:00,
2013-05-23 22:32:00,63.0,24.0,29.63,South,182,30.0,32.0,23,-99.99,,,0.00,,2013-05-24 05:32:00,
2013-05-23 22:42:00,63.0,24.0,29.63,South,182,30.0,32.0,23,-99.99,,,0.00,,2013-05-24 05:42:00,
2013-05-23 22:52:00,63.0,25.0,29.59,WSW,238,33.0,40.0,23,-99.99,,,0.00,,2013-05-24 05:52:00,
2013-05-23 23:01:00,63.0,25.0,29.59,WSW,238,33.0,40.0,23,-99.99,,,0.00,,2013-05-24 06:01:00,
2013-05-23 23:12:00,63.0,25.0,29.59,WSW,238,33.0,40.0,23,-99.99,,,0.00,,2013-05-24 06:12:00,
2013-05-23 23:21:00,63.0,24.0,29.59,SSW,210,11.0,36.0,23,-99.99,,,-99.99,,2013-05-24 06:21:00,
2013-05-23 23:32:00,62.0,24.0,29.60,SSW,210,20.0,38.0,23,-99.99,,,0.00,,2013-05-24 06:32:00,
2013-05-23 23:41:00,62.0,24.0,29.60,SSW,210,20.0,38.0,23,-99.99,,,0.00,,2013-05-24 06:41:00,
2013-05-23 23:52:00,62.0,24.0,29.60,SW,217,17.0,30.0,23,-99.99,,,0.00,,2013-05-24 06:52:00,